Header for Extended Forecast Station List Page

Search by: ID | Name | Date | Parm | Value | Avg | % Avg
Sort by: ID | Name | Date | Parm | Value | Avg | % Avg

Enter search or view all records.

Click on id for station plot
#IDNameDateParmValueAvg% Avg
0LYDM8KOOTENAI-LIBBY DAM06-01-2020INFLOW (KAF)49464617107
1LEOI1KOOTENAI-AT LEONIA06-01-2020DISCHARGE (KAF)42874156103
2BFEI1KOOTENAI-AT BONNERS FERRY06-01-2020STAGE (FT)MMM
3FCFM8NF FLATHEAD-NEAR COLUMBIA FALLS06-01-2020DISCHARGE (KAF)11121030108
4WGCM8MF FLATHEAD-NEAR WEST GLACIER06-01-2020DISCHARGE (KAF)1137977116
5HHWM8SF FLATHEAD-HUNGRY HORSE DAM06-01-2020INFLOW (KAF)12571073117
6CFMM8FLATHEAD-AT COLUMBIA FALLS06-01-2020DISCHARGE (KAF)35712775129
7DLGM8CLARK FORK-AT DEER LODGE06-01-2020DISCHARGE (KAF)5855105
8DRMM8CLARK FORK-NR DRUMMOND06-01-2020DISCHARGE (KAF)170MM
9RCCM8ROCK CREEK-NEAR CLINTON06-01-2020DISCHARGE (KAF)185183101
10BONM8BLACKFOOT-NEAR BONNER06-01-2020DISCHARGE (KAF)539497109
11ABOM8CLARK FORK-ABOVE MISSOULA06-01-2020DISCHARGE (KAF)930909102
12BITM8BITTERROOT-NEAR MISSOULA06-01-2020DISCHARGE (KAF)70278889
13BELM8CLARK FORK-BELOW MISSOULA06-01-2020DISCHARGE (KAF)1636172995
14STRM8ST. REGIS-NEAR ST. REGIS06-01-2020DISCHARGE (KAF)9996104
15SRGM8CLARK FORK-AT ST REGIS06-01-2020DISCHARGE (KAF)2034224291
16KERM8FLATHEAD-KERR DAM06-01-2020INFLOW (KAF)40913428119
17NOXM8CLARK FORK-NOXON RAPIDS DAM06-01-2020INFLOW (KAF)64266006107
18CABI1CLARK FORK-CABINET GORGE DAM06-01-2020INFLOW (KAF)70366442109
19PRTI1PRIEST-NEAR PRIEST RIVER06-01-2020DISCHARGE (KAF)431374115
20ALFW1PEND OREILLE-ALBENI FALLS DAM06-01-2020INFLOW (KAF)76037088107
21HOPI1PEND OREILLE-PEND OREILLE LAKE NR HOPE06-01-2020LAKE ELEVATION (FT)MMM
22COEI1COEUR D ALENE-COEUR D ALENE LAKE06-01-2020INFLOW (KAF)68771696
23SPOW1SPOKANE-AT SPOKANE06-01-2020DISCHARGE (KAF)774MM
24LLKW1SPOKANE-AT LONGLAKE06-01-2020INFLOW (KAF)979115685
25SATI1ST MARIES-NEAR SANTA06-01-2020DISCHARGE (KAF)313882
26SJMI1ST JOE-AT ST MARIES06-01-2020STAGE (FT)MMM
27CIBW1COLUMBIA-AT INTL BOUNDARY06-01-2020DISCHARGE (KAF)31524MM
28LAUW1KETTLE-AT LAURIER06-01-2020DISCHARGE (KAF)1189804148
29GCDW1COLUMBIA-GRAND COULEE DAM06-01-2020INFLOW (KAF)338173587294
30CHJW1COLUMBIA-CHIEF JOSEPH DAM06-01-2020INFLOW (KAF)3157027624114
31TONW1OKANOGAN-NEAR TONASKET06-01-2020DISCHARGE (KAF)92893699
32PATW1METHOW-NEAR PATEROS06-01-2020DISCHARGE (KAF)38152373
33WELW1COLUMBIA-WELLS DAM06-01-2020INFLOW (KAF)3292929385112
34CHDW1CHELAN-LAKE CHELAN DAM06-01-2020INFLOW (KAF)43670562
35RRHW1COLUMBIA-ROCKY REACH DAM06-01-2020INFLOW (KAF)3376430045112
36ARDW1ENTIAT-NEAR ARDENVOIR06-01-2020DISCHARGE (KAF)10313477
37PESW1WENATCHEE-AT PESHASTIN06-01-2020DISCHARGE (KAF)60989568
38WANW1COLUMBIA-WANAPUM DAM06-01-2020INFLOW (KAF)345713613496
39PRWW1COLUMBIA-PRIEST RAPIDS DAM06-01-2020INFLOW (KAF)345903686994
40KEDW1YAKIMA-KEECHELUS LAKE06-01-2020INFLOW (KAF)375174
41KADW1KACHESS-KACHESS DAM06-01-2020INFLOW (KAF)354382
42EASW1YAKIMA-AT EASTON06-01-2020DISCHARGE (KAF)9882119
43CLUW1CLE ELUM-CLE ELUM LAKE06-01-2020INFLOW (KAF)15520874
44TNAW1TEANAWAY-BELOW FORKS06-01-2020DISCHARGE (KAF)103033
45UMTW1YAKIMA-AT UMTANUM06-01-2020DISCHARGE (KAF)72076294
46BUDW1BUMPING-BUMPING LAKE DAM06-01-2020INFLOW (KAF)466768
47CLFW1NACHES-NEAR CLIFFDEL06-01-2020DISCHARGE (KAF)14920274
48RILW1TIETON-RIMROCK LAKE NEAR RIMROCK06-01-2020INFLOW (KAF)11013482
49NACW1NACHES-NEAR NACHES06-01-2020DISCHARGE (KAF)21630671
50PARW1YAKIMA-NEAR PARKER06-01-2020DISCHARGE (KAF)8020140
51KIOW1YAKIMA-AT KIONA06-01-2020DISCHARGE (KAF)37753371
52IPDI1HENRYS FORK-ISLAND PARK DAM06-01-2020INFLOW (KAF)12917773
53CHEI1FALL RIVER-NEAR CHESTER06-01-2020DISCHARGE (KAF)14118277
54ANTI1HENRYS FORK-AT ST. ANTHONY06-01-2020DISCHARGE (KAF)37942190
55TEAI1TETON-NEAR ST. ANTHONY06-01-2020DISCHARGE (KAF)26728693
56REXI1HENRYS FORK-AT REXBURG06-01-2020DISCHARGE (KAF)42449785
57JLKW4SNAKE-JACKSON LAKE AT DAM06-01-2020INFLOW (KAF)45056779
58JKSW4SNAKE-NEAR JACKSON06-01-2020DISCHARGE (KAF)1356154288
59ALPW4SNAKE-NEAR ALPINE06-01-2020DISCHARGE (KAF)1696188690
60PLDI1SF SNAKE-PALISADES DAM06-01-2020INFLOW (KAF)2262253689
61HEII1SNAKE-NEAR HEISE06-01-2020DISCHARGE (KAF)2729275399
62RIDI1WILLOW CREEK-RIRIE DAM06-01-2020INFLOW (KAF)111199
63SIFI1SNAKE-AB EAGLE ROCK NR IDAHO FALLS06-01-2020DISCHARGE (KAF)1848196594
64SHYI1SNAKE-NEAR SHELLEY06-01-2020DISCHARGE (KAF)16531618102
65SNAI1SNAKE-AT BLACKFOOT06-01-2020DISCHARGE (KAF)1084109499
66BFTI1SNAKE-NEAR BLACKFOOT06-01-2020DISCHARGE (KAF)1049997105
67PIHI1PORTNEUF-AT POCATELLO06-01-2020DISCHARGE (KAF)182865
68AFRI1SNAKE-AMERICAN FALLS RESERVOIR06-01-2020INFLOW (KAF)1604163198
69MILI1SNAKE-AT MILNER06-01-2020DISCHARGE (KAF)25097257
70HOTI1BRUNEAU-NEAR HOT SPRINGS06-01-2020DISCHARGE (KAF)647586
71SWAI1SNAKE-BELOW SWAN FALLS06-01-2020DISCHARGE (KAF)1875199994
72HWRI1BIG LOST-AT HOWELL RANCH NEAR CHILLY06-01-2020DISCHARGE (KAF)5912746
73MACI1BIG LOST-MACKAY RESERVOIR NEAR MACKAY06-01-2020INFLOW (KAF)5812148
74HALI1BIG WOOD-AT HAILEY06-01-2020DISCHARGE (KAF)8315952
75MAGI1BIG WOOD-MAGIC DAM06-01-2020INFLOW (KAF)3910836
76LWRI1LITTLE WOOD-LITTLE WOOD DAM06-01-2020INFLOW (KAF)123733
77OWYO3OWYHEE-OWYHEE DAM06-01-2020INFLOW (KAF)727893
78ARAI1SF BOISE-ANDERSON RANCH DAM06-01-2020INFLOW (KAF)10124042
79LUCI1BOISE-LUCKY PEAK DAM06-01-2020INFLOW (KAF)670MM
80BIGI1BOISE-AT GLENWOOD BRIDGE06-01-2020DISCHARGE (KAF)20128870
81PARI1BOISE-NEAR PARMA06-01-2020DISCHARGE (KAF)18626670
82WRMO3MALHEUR-WARM SPRINGS DAM06-01-2020INFLOW (KAF)64165
83BERO3MALHEUR-AGENCY VALLEY DAM06-01-2020INFLOW (KAF)1512128
84BULO3BULLY CREEK-BULLY CREEK DAM06-01-2020INFLOW (KAF)004
85CSDI1NF PAYETTE-CASCADE DAM06-01-2020INFLOW (KAF)16623870
86DEDI1DEADWOOD-NEAR LOWMAN06-01-2020INFLOW (KAF)447757
87EMMI1PAYETTE-NEAR EMMETT06-01-2020DISCHARGE (KAF)54475972
88WSRI1WEISER-NEAR WEISER06-01-2020DISCHARGE (KAF)9212474
89WEII1SNAKE-AT WEISER06-01-2020DISCHARGE (KAF)2967335988
90BRNI1SNAKE-BROWNLEE DAM06-01-2020INFLOW (KAF)3146352989
91WHBI1SALMON-AT WHITEBIRD06-01-2020DISCHARGE (KAF)3032382079
92TRYO3GRANDE RONDE-TROY06-01-2020DISCHARGE (KAF)51654595
93ANAW1SNAKE-NEAR ANATONE06-01-2020DISCHARGE (KAF)7081832585
94ORFI1CLEARWATER-AT OROFINO06-01-2020DISCHARGE (KAF)1971213492
95DWRI1NF CLEARWATER-DWORSHAK DAM06-01-2020INFLOW (KAF)862111977
96SPDI1CLEARWATER-AT SPALDING06-01-2020DISCHARGE (KAF)39263292119
97LGDW1SNAKE-LOWER GRANITE DAM06-01-2020INFLOW (KAF)110071169294
98LGSW1SNAKE-LITTLE GOOSE DAM06-01-2020INFLOW (KAF)110061171294
99LMNW1SNAKE-LOWER MONUMENTAL DAM06-01-2020INFLOW (KAF)110371172194
100IHDW1SNAKE-ICE HARBOR DAM06-01-2020INFLOW (KAF)110271167194
101TCHW1WALLA WALLA-NEAR TOUCHET06-01-2020DISCHARGE (KAF)2916179
102MCDW1COLUMBIA-MCNARY DAM06-01-2020INFLOW (KAF)462864970693
103GIBO3UMATILLA-NEAR GIBBON06-01-2020DISCHARGE (KAF)171992
104PDTO3UMATILLA-AT PENDLETON06-01-2020DISCHARGE (KAF)2924122
105MYKO3MCKAY CREEK-NEAR PILOT ROCK06-01-2020DISCHARGE (KAF)71566
106UMAO3UMATILLA-NEAR UMATILLA06-01-2020DISCHARGE (KAF)4331426
107MONO3NF JOHN DAY-AT MONUMENT06-01-2020DISCHARGE (KAF)11513884
108SERO3JOHN DAY-AT SERVICE CK06-01-2020DISCHARGE (KAF)17719491
109JDAO3COLUMBIA-JOHN DAY DAM06-01-2020INFLOW (KAF)471405056893
110MODO3DESCHUTES-AT MOODY NR BIGGS06-01-2020DISCHARGE (KAF)1058113293
111TDAO3COLUMBIA-THE DALLES DAM06-01-2020INFLOW (KAF)4749645695104
112PITW1KLICKITAT-NEAR PITT06-01-2020DISCHARGE (KAF)17728063
113HODO3HOOD-NEAR TUCKER BRIDGE06-01-2020DISCHARGE (KAF)8611774
114UNDW1WHITE SALMON-NEAR UNDERWOOD06-01-2020DISCHARGE (KAF)13920767
115BONO3COLUMBIA-BONNEVILLE DAM06-01-2020INFLOW (KAF)4793846809102